When you browse on this site, cookies collect data to enhance your experience and personalize the content and advertising you see.
Visit our Privacy Policy to learn more. By continuing to use the site, you agree to this use of cookies and data.
  • In Hungary
  • List of Countries
  • For 7 days
  • Water Temperature
  • Satellite Maps
  • Weather Map
  • News
  • Weather Widgets
  • user-avatar
    Login

    Hourly Weather Cangas

    Today, 17 December, Monday

    Time Temperature Precipitation Wind Pressure Humidity
    00:00 +7°C° 0 mm 3 mps 764 mmHg 96%
    01:00 +7°C° 0 mm 3 mps 764 mmHg 95%
    02:00 +7°C° 0 mm 3 mps 764 mmHg 95%
    03:00 +7°C° 0 mm 3 mps 763 mmHg 95%
    04:00 +7°C° 0 mm 4 mps 763 mmHg 95%
    05:00 +7°C° 0 mm 4 mps 763 mmHg 95%
    06:00 +7°C° 0 mm 4 mps 763 mmHg 94%
    07:00 +7°C° 0 mm 5 mps 763 mmHg 93%
    08:00 +7°C° 0 mm 5 mps 763 mmHg 93%
    09:00 +8°C° 0 mm 5 mps 763 mmHg 88%
    10:00 +10°C° 0 mm 5 mps 763 mmHg 84%
    11:00 +11°C° 0 mm 6 mps 763 mmHg 79%
    12:00 +11°C° 0 mm 6 mps 762 mmHg 79%
    13:00 +11°C° 0 mm 6 mps 761 mmHg 78%
    14:00 +11°C° 0 mm 6 mps 761 mmHg 77%
    15:00 +10°C° 0 mm 6 mps 760 mmHg 81%
    16:00 +9°C° 0 mm 6 mps 760 mmHg 85%
    17:00 +8°C° 0 mm 6 mps 760 mmHg 88%
    18:00 +8°C° 0 mm 6 mps 760 mmHg 87%
    19:00 +8°C° 0 mm 7 mps 759 mmHg 86%
    20:00 +8°C° 0 mm 7 mps 759 mmHg 84%
    21:00 +8°C° 0 mm 7 mps 759 mmHg 84%
    22:00 +7°C° 0 mm 8 mps 758 mmHg 83%
    23:00 +7°C° 0 mm 8 mps 757 mmHg 83%

    Tomorrow, 18 December, Tuesday

    Time Temperature Precipitation Wind Pressure Humidity
    00:00 +7°C° 0 mm 9 mps 756 mmHg 78%
    01:00 +7°C° 0 mm 9 mps 755 mmHg 73%
    02:00 +8°C° 0 mm 9 mps 754 mmHg 68%
    03:00 +8°C° 0.6 mm 10 mps 753 mmHg 72%
    04:00 +8°C° 0.6 mm 10 mps 752 mmHg 76%
    05:00 +8°C° 0.6 mm 11 mps 752 mmHg 80%
    06:00 +8°C° 3.5 mm 10 mps 752 mmHg 84%
    07:00 +10°C° 3.5 mm 9 mps 752 mmHg 87%
    08:00 +10°C° 3.5 mm 8 mps 752 mmHg 91%
    09:00 +10°C° 4 mm 7 mps 753 mmHg 93%
    10:00 +10°C° 4 mm 6 mps 753 mmHg 95%
    11:00 +11°C° 4 mm 4 mps 754 mmHg 97%
    12:00 +11°C° 0.9 mm 4 mps 754 mmHg 95%
    13:00 +11°C° 0.9 mm 4 mps 754 mmHg 94%
    14:00 +11°C° 0.9 mm 4 mps 755 mmHg 92%
    15:00 +10°C° 0.1 mm 4 mps 755 mmHg 93%
    16:00 +8°C° 0.1 mm 4 mps 756 mmHg 94%
    17:00 +7°C° 0.1 mm 4 mps 756 mmHg 94%
    18:00 +7°C° 0.4 mm 4 mps 757 mmHg 95%
    19:00 +8°C° 0.4 mm 4 mps 757 mmHg 95%
    20:00 +8°C° 0.4 mm 4 mps 758 mmHg 95%
    21:00 +8°C° 0.4 mm 4 mps 758 mmHg 95%
    22:00 +8°C° 0.4 mm 4 mps 758 mmHg 95%
    23:00 +8°C° 0.4 mm 4 mps 759 mmHg 95%

    Day after tomorrow, 19 December, Wednesday

    Time Temperature Precipitation Wind Pressure Humidity
    00:00 +8°C° 0.5 mm 5 mps 759 mmHg 95%
    01:00 +8°C° 0.5 mm 5 mps 758 mmHg 95%
    02:00 +8°C° 0.5 mm 5 mps 758 mmHg 95%
    03:00 +8°C° 0.6 mm 5 mps 758 mmHg 95%
    04:00 +8°C° 0.6 mm 5 mps 758 mmHg 95%
    05:00 +8°C° 0.6 mm 4 mps 758 mmHg 95%
    06:00 +8°C° 0.3 mm 4 mps 759 mmHg 95%
    07:00 +8°C° 0.3 mm 5 mps 759 mmHg 95%
    08:00 +8°C° 0.3 mm 5 mps 760 mmHg 94%
    09:00 +10°C° 0.4 mm 4 mps 760 mmHg 92%
    10:00 +11°C° 0.4 mm 4 mps 760 mmHg 90%
    11:00 +11°C° 0.4 mm 4 mps 761 mmHg 88%
    12:00 +11°C° 0.2 mm 4 mps 760 mmHg 88%
    13:00 +11°C° 0.2 mm 3 mps 760 mmHg 88%
    14:00 +11°C° 0.2 mm 3 mps 760 mmHg 88%
    15:00 +11°C° 0.2 mm 3 mps 760 mmHg 91%
    16:00 +10°C° 0.2 mm 3 mps 760 mmHg 93%
    17:00 +10°C° 0.2 mm 3 mps 761 mmHg 96%
    18:00 +10°C° 0.1 mm 2 mps 761 mmHg 96%
    19:00 +10°C° 0.1 mm 2 mps 761 mmHg 97%
    20:00 +9°C° 0.1 mm 2 mps 762 mmHg 97%
    21:00 +9°C° 0.1 mm 3 mps 762 mmHg 97%
    22:00 +9°C° 0.1 mm 3 mps 762 mmHg 97%
    23:00 +9°C° 0.1 mm 3 mps 762 mmHg 97%

    20 December, Thursday

    Time Temperature Precipitation Wind Pressure Humidity
    00:00 +9°C° 0.2 mm 3 mps 761 mmHg 97%
    01:00 +10°C° 0.2 mm 3 mps 761 mmHg 97%
    02:00 +10°C° 0.2 mm 3 mps 761 mmHg 97%
    03:00 +10°C° 0.2 mm 3 mps 761 mmHg 97%
    04:00 +10°C° 0.2 mm 3 mps 761 mmHg 97%
    05:00 +10°C° 0.2 mm 4 mps 761 mmHg 97%
    06:00 +10°C° 0.2 mm 4 mps 761 mmHg 97%
    07:00 +11°C° 0.2 mm 4 mps 762 mmHg 97%
    08:00 +11°C° 0.2 mm 4 mps 762 mmHg 97%
    09:00 +11°C° 0.3 mm 4 mps 762 mmHg 96%
    10:00 +10°C° 0.3 mm 5 mps 762 mmHg 96%
    11:00 +12°C° 0.3 mm 5 mps 762 mmHg 95%
    12:00 +11°C° 0.4 mm 6 mps 762 mmHg 95%
    13:00 +11°C° 0.4 mm 6 mps 761 mmHg 95%
    14:00 +11°C° 0.4 mm 6 mps 761 mmHg 95%
    15:00 +11°C° 0.7 mm 6 mps 761 mmHg 96%
    16:00 +11°C° 0.7 mm 6 mps 761 mmHg 96%
    17:00 +11°C° 0.7 mm 6 mps 761 mmHg 96%
    18:00 +11°C° 1.5 mm 6 mps 761 mmHg 96%
    19:00 +11°C° 1.5 mm 6 mps 762 mmHg 96%
    20:00 +11°C° 1.5 mm 6 mps 762 mmHg 96%
    21:00 +11°C° 1 mm 6 mps 762 mmHg 96%
    22:00 +11°C° 1 mm 6 mps 762 mmHg 96%
    23:00 +11°C° 1 mm 6 mps 762 mmHg 96%

    21 December, Friday

    Time Temperature Precipitation Wind Pressure Humidity
    00:00 +13°C° 0.8 mm 6 mps 761 mmHg 96%
    01:00 +13°C° 0.8 mm 6 mps 761 mmHg 96%
    02:00 +13°C° 0.8 mm 6 mps 761 mmHg 96%
    03:00 +13°C° 0.6 mm 5 mps 761 mmHg 96%
    04:00 +13°C° 0.6 mm 5 mps 761 mmHg 97%
    05:00 +13°C° 0.6 mm 5 mps 762 mmHg 97%
    06:00 +14°C° 0.2 mm 5 mps 762 mmHg 97%
    07:00 +14°C° 0.2 mm 5 mps 762 mmHg 97%
    08:00 +14°C° 0.2 mm 5 mps 762 mmHg 97%
    09:00 +14°C° 0.1 mm 6 mps 763 mmHg 96%
    10:00 +15°C° 0.1 mm 6 mps 763 mmHg 94%
    11:00 +15°C° 0.1 mm 6 mps 763 mmHg 93%
    12:00 +15°C° 0.1 mm 6 mps 763 mmHg 93%
    13:00 +15°C° 0.1 mm 6 mps 762 mmHg 94%
    14:00 +15°C° 0.1 mm 6 mps 762 mmHg 94%
    15:00 +15°C° 0.1 mm 5 mps 762 mmHg 95%
    16:00 +15°C° 0.1 mm 5 mps 763 mmHg 96%
    17:00 +14°C° 0.1 mm 5 mps 763 mmHg 97%
    18:00 +15°C° 0.2 mm 5 mps 763 mmHg 97%
    19:00 +15°C° 0.2 mm 5 mps 763 mmHg 97%
    20:00 +15°C° 0.2 mm 4 mps 763 mmHg 97%
    21:00 +15°C° 0.3 mm 4 mps 763 mmHg 97%
    22:00 +15°C° 0.3 mm 4 mps 763 mmHg 97%
    23:00 +15°C° 0.3 mm 4 mps 763 mmHg 97%

    22 December, Saturday

    Time Temperature Precipitation Wind Pressure Humidity
    00:00 +15°C° 0.3 mm 4 mps 763 mmHg 98%
    01:00 +15°C° 0.3 mm 4 mps 763 mmHg 98%
    02:00 +15°C° 0.3 mm 4 mps 763 mmHg 98%
    03:00 +15°C° 0.3 mm 4 mps 763 mmHg 98%
    04:00 +15°C° 0.3 mm 4 mps 763 mmHg 98%
    05:00 +14°C° 0.3 mm 4 mps 763 mmHg 98%
    06:00 +14°C° 0.1 mm 4 mps 763 mmHg 97%
    07:00 +14°C° 0.1 mm 4 mps 763 mmHg 97%
    08:00 +15°C° 0.1 mm 4 mps 763 mmHg 97%
    09:00 +15°C° 0 mm 4 mps 763 mmHg 94%
    10:00 +17°C° 0 mm 4 mps 763 mmHg 91%
    11:00 +18°C° 0 mm 4 mps 764 mmHg 89%
    12:00 +18°C° 0 mm 4 mps 763 mmHg 87%
    13:00 +18°C° 0 mm 4 mps 763 mmHg 86%
    14:00 +18°C° 0 mm 4 mps 762 mmHg 85%
    15:00 +17°C° 0 mm 3 mps 762 mmHg 89%
    16:00 +16°C° 0 mm 3 mps 762 mmHg 92%
    17:00 +13°C° 0 mm 3 mps 762 mmHg 96%
    18:00 +14°C° 0 mm 2 mps 763 mmHg 96%
    19:00 +14°C° 0 mm 2 mps 763 mmHg 96%
    20:00 +13°C° 0 mm 2 mps 763 mmHg 96%
    21:00 +13°C° 0 mm 2 mps 763 mmHg 96%
    22:00 +13°C° 0 mm 2 mps 762 mmHg 96%
    23:00 +12°C° 0 mm 3 mps 762 mmHg 96%
    Show more